Location: Poughquag
(41.6090°N, 73.6820°W)
Time: 10:45:11
(UTC-04:00)

Tiros 1 - Pass Details

Date: 04 June 2020
Orbit: 630 x 664 km, 48.4° (Epoch: 06 July)

Event Time Altitude Azimuth Distance (km) Brightness Sun altitude
Rises 15:22:19 0° 293° (WNW) 2,966 10.9 53.5°
Reaches altitude 10° 15:24:48 10° 301° (WNW) 2,049 10.2 53.1°
Maximum altitude 15:29:15 40° 11° (N) 951 8.3 52.3°
Drops below altitude 10° 15:33:39 10° 81° (E) 2,025 9.4 51.5°
Sets 15:36:05 0° 89° (E) 2,927 10.2 51.1°
